This is the latest recevied weather packets stored in our database for station/object N0QV. If no packets are shown the sender has not sent any weather packets the latest 10 day(s).
| Time | Temp. | Humidity | Pressure | Rain* | Wind** | Luminosity | Snow |
|---|---|---|---|---|---|---|---|
| 1777945439 | 10° C | 40% | 1007 hPa | 0 mm | - | 0 W/m² | - |
| 1777945135 | 10.56° C | 40% | 1007 hPa | 0 mm | - | 0 W/m² | - |
| 1777944832 | 10.56° C | 40% | 1006.6 hPa | 0 mm | - | 0 W/m² | - |
| 1777944531 | 10.56° C | 39% | 1006.8 hPa | 0 mm | - | 1 W/m² | - |
| 1777944229 | 10.56° C | 39% | 1006.6 hPa | 0 mm | - | 3 W/m² | - |
| 1777943924 | 11.11° C | 39% | 1006.6 hPa | 0 mm | - | 5 W/m² | - |
| 1777943621 | 11.11° C | 40% | 1006.7 hPa | 0 mm | - | 10 W/m² | - |
| 1777943317 | 11.11° C | 39% | 1006.4 hPa | 0 mm | - | 13 W/m² | - |
| 1777943013 | 11.67° C | 39% | 1006.3 hPa | 0 mm | - | 17 W/m² | - |
| 1777942710 | 11.67° C | 39% | 1006.1 hPa | 0 mm | - | 20 W/m² | - |
| 1777942407 | 11.67° C | 38% | 1005.9 hPa | 0 mm | - | 22 W/m² | - |
| 1777942104 | 11.67° C | 37% | 1005.6 hPa | 0 mm | - | 28 W/m² | - |
| 1777941800 | 12.22° C | 36% | 1005.5 hPa | 0 mm | - | 34 W/m² | - |
| 1777941498 | 12.22° C | 35% | 1005.6 hPa | 0 mm | - | 39 W/m² | - |
| 1777941195 | 12.22° C | 35% | 1005.6 hPa | 0 mm | - | 44 W/m² | - |
| 1777940891 | 12.22° C | 35% | 1005.5 hPa | 0 mm | - | 52 W/m² | - |
| 1777940588 | 12.22° C | 35% | 1005.3 hPa | 0 mm | - | 53 W/m² | - |
| 1777940286 | 12.78° C | 35% | 1005.3 hPa | 0 mm | - | 59 W/m² | - |
| 1777939983 | 12.78° C | 35% | 1005.4 hPa | 0 mm | - | 63 W/m² | - |
| 1777939680 | 12.78° C | 35% | 1005.3 hPa | 0 mm | - | 72 W/m² | - |
| 1777939378 | 12.78° C | 35% | 1005.2 hPa | 0 mm | - | 95 W/m² | - |
| 1777939074 | 12.78° C | 36% | 1005.1 hPa | 0 mm | - | 104 W/m² | - |
| 1777938770 | 13.33° C | 36% | 1005.2 hPa | 0 mm | - | 108 W/m² | - |
| 1777938468 | 13.33° C | 36% | 1005.1 hPa | 0 mm | - | 130 W/m² | - |
| 1777938165 | 13.33° C | 36% | 1005.1 hPa | 0 mm | - | 131 W/m² | - |
* Rain latest hour (hover to see other rain measurements)
** Current wind speed in m/s (hover to see current wind gust speed)